User: anonymous   Login
Location: Unspecified
(0.0000°N, 0.0000°E)
Time: 03:29:24
(UTC+00:00)
Language:

OPTUS 1C - Orbit

View from above orbital plane
View from above orbital plane
View from above satellite
View from above satellite

Ground track
Ground track

The orbit data is extracted from the following two-line orbital elements,

1 27831U 03028B   19082.85598927 -.00000173  00000-0  00000+0 0  9998
2 27831   0.3730 102.2497 0006171 269.3220 273.3126  1.00270795 57827
Epoch (UTC): 23 March 2019 20:32:37
Eccentricity: 0.0006171
inclination: 0.3730°
perigee height: 35760 km
apogee height: 35812 km
right ascension of ascending node: 102.2497°
argument of perigee: 269.3220°
revolutions per day: 1.00270795
mean anomaly at epoch: 273.3126°
orbit number at epoch: 5782

The dashed part of the orbit path shows where the satellite is in the earth's shadow,  

DLR